STARLINK-2489 (48146 NORAD) Tracking and Keplerian Element Data

This shows tracking and keplerian element data for the satellite.

Feedback or suggestion? Click here.




ElementValue
Catalog48146
NameSTARLINK-2489
Epoch Orbit182
Epoch Day136.91668981
Epoch Year2021
RAAN145.9688
Inclination53.0463
Eccentricity0.0001141
Argument of Perigee63.0446
Mean Anonmoly309.6681
Mean Motion15.5432681
Decay Rate-0.01090036
L11 48146U 21027BG 21136.91668981 -.01090036 00000-0 -18058-1 0 9990
L22 48146 53.0463 145.9688 0001141 63.0446 309.6681 15.54326810 1826

Live tracking and technical data element details for STARLINK-2489 (NORAD 48146). STARLINK-2489 can be tracked NOW for your location showing map with azimuth and elevation plus other details from your city location.

Track the satellite on the map from your city or location and see movement details for azimuth, elevation, latitude, longitude, range, height, and movement on the map or in text.







IsCatalogInMostPopularTable: catalog: 48146, numindb: 16
Update: records affected: 1



GetName: 48146 STARLINK-2489

Hit Count: updated at: Mon, 17 May 2021 15:31:41 GMT